THOR ABLESTAR DEB, 20174

Orbit data source: Space-Track

THOR ABLESTAR DEB, 20174 is space debris in LEO originally from a launch on Thu, 29 Jun 1961 UTC launched from the Air Force Eastern Test Range (AFETR). Debris objects in space refer to the collection of defunct objects orbiting the Earth. Examples of debris include non-operational satellites, rocket bodies, and fragments generated from explosions, collisions, or faulty payload assembly.

Loading next visibility...
Identifier
20174, 1961-015MK
Orbit
LEO
Country
Flag of USUS
Related business
Manufacturer
Unknown
Mission
Spacecraft
Bus & Motor
Unknown
Mass
Unknown
Launch date (UTC)
1961-06-29 (65 years ago)
Launch vehicle
Unknown
Launch site
Air Force Eastern Test Range (AFETR)
Object type
Payload
Rocket body
Debris
Shape & HBR
Unknown shape, 0.1 m
Radar Cross Section
Small (<0.1 m²)

Expand to show TLE details & history
Last TLE update: 1 day ago

TLE from 1 day ago
0 THOR ABLESTAR DEB
1 20174U 61015MK  26032.92906159  .00000650  00000-0  81160-3 0  9991
2 20174  67.0589 217.9062 0487394 222.2921 133.9575 13.28681857663820
Epoch: 2026-02-01T22:17Z
TLE epoch observation values (Epoch: 2026-02-01T22:17:50.921Z)
Latitude
Longitude
111.31238°
Altitude
1,417.353 km
Speed
7.026 km/s
True Right ascension
14h 31m 37s
True Declination
0° 00' 00"
Sunlit
Object was in daylight at epoch
Visualization orbit readout
Latitude
Unknown
Longitude
Unknown
Altitude
Unknown
Speed
Unknown
Apparent Right ascension
Unknown
Apparent Declination
Unknown
Sunlit
N/A
Visualization observer readout
Local Sidereal Time
07:46:40
Azimuth
Unknown
Elevation
Unknown
Doppler factor
Unknown
Orbital elements
Apogee altitude
1,517.071 km
Perigee altitude
783.223 km
Semi-major axis
7,528.284 km
Eccentricity
0.04874
Inclination
67.0589°
RAAN
217.9062°
Arg. of periapsis
222.2921°
True anomaly
137.81171°
Mean anomaly
133.9575°
Eccentric anomaly
135.90085°
Mean motion
3.32276 °/min
Orbital period
108.34 mins
BSTAR
0.0008116
Loading maneuver chart data...
Computing Atmospheric mass density...
Loading historical data...
Loading historical data...
Loading historical data...
Loading historical data...
Loading historical data...
Loading historical data...
Loading historical data...

Documentation

Showing up to 5 results
|